Location: Nelson
(41.2830°S, 173.2830°E)
Time: 19:14:57
(UTC+12:00)

CZ-4B R/B - Pass Details

Date: 14 May 2021
Orbit: 809 x 881 km, 99.1° (Epoch: 19 June)

Event Time Altitude Azimuth Distance (km) Brightness Sun altitude
Exits shadow 19:24:13 - 168° (SSE) 2,512 5.5 -23.5°
Reaches altitude 10° 19:24:25 10° 169° (SSE) 2,435 5.4 -23.5°
Maximum altitude 19:29:47 79° 254° (WSW) 840 3.2 -24.5°
Drops below altitude 10° 19:35:05 10° 339° (NNW) 2,400 5.8 -25.5°
Sets 19:37:24 0° 340° (NNW) 3,328 6.6 -26.0°
